Port Isabel, TX

9:19 PM CST on February 22, 2017 (GMT -0600)
Port Isabel-Cameron County

Weather History for KPIL - September, 2013

Change the Weather History Date:

Sunday, September 22, 2013

  Actual Average (KBRO) Record (KBRO)
Temperature  
Mean Temperature 78 °F -  
Max Temperature 84 °F 87 °F 99 °F (1920)
Min Temperature 71 °F 69 °F 55 °F (1995)
Cooling Degree Days 12    
Growing Degree Days 28 (Base 50)    
Moisture  
Dew Point 66 °F    
Average Humidity 68    
Maximum Humidity 87    
Minimum Humidity 46    
Precipitation  
Precipitation 0.00 in - - ()
Sea Level Pressure  
Sea Level Pressure 29.76 in    
Wind  
Wind Speed 12 mph (North)    
Max Wind Speed 21 mph    
Max Gust Speed 32 mph    
Visibility 9 miles    
Events      
Averages and records for this station are not official NWS values.
T = Trace of Precipitation, MM = Missing Value Source: NWS Daily Summary

Daily Weather History Graph

Daily Weather History Graph

Search for Another Location

Airport or City:

Trip Planner

Search our weather history database for the weather conditions in past years. The results will help you decide how hot, cold, wet, or windy it might be!

Date:

Astronomy

Sep. 22, 2013 Rise Set
Actual Time 7:18 AM CDT 7:25 PM CDT
Civil Twilight 6:55 AM CDT 7:48 PM CDT
Nautical Twilight 6:28 AM CDT 8:15 PM CDT
Astronomical Twilight 6:01 AM CDT 8:42 PM CDT
Moon 9:40 PM CDT (9/22) 10:17 AM CDT (9/22)
Length of Visible Light 12h 53m
Length of Day
12h 07m
Waning Gibbous, 88% of the Moon is Illuminated
Sep 22
Waning Gibbous
Sep 26
Last Quarter
Oct 4
New
Oct 11
First Quarter
Oct 18
Full

Hourly Weather History & Observations

Time (CDT) Temp. Heat Index Dew Point Humidity Pressure Visibility Wind Dir Wind Speed Gust Speed Precip Events Conditions
12:53 AM 73.9 °F - 69.1 °F 85% 29.78 in 9.0 mi NNW 6.9 mph - 0.00 in   Overcast
1:53 AM 73.9 °F - 69.1 °F 85% 29.78 in 9.0 mi NW 6.9 mph - N/A   Overcast
2:53 AM 73.0 °F - 69.1 °F 87% 29.75 in 10.0 mi NW 8.1 mph - 0.00 in   Overcast
3:53 AM 73.9 °F - 66.9 °F 79% 29.74 in 9.0 mi NNW 9.2 mph - N/A   Overcast
4:08 AM 73.4 °F - 66.2 °F 78% 29.74 in 9.0 mi NNW 9.2 mph - N/A   Overcast
4:53 AM 73.0 °F - 66.9 °F 81% 29.73 in 9.0 mi NW 12.7 mph - N/A   Overcast
5:53 AM 72.0 °F - 66.9 °F 84% 29.73 in 9.0 mi NW 11.5 mph - N/A   Clear
6:53 AM 71.1 °F - 66.9 °F 87% 29.74 in 9.0 mi NNW 12.7 mph - N/A   Clear
7:53 AM 71.1 °F - 66.9 °F 87% 29.76 in 8.0 mi NNW 11.5 mph - N/A   Clear
8:53 AM 73.0 °F - 66.9 °F 81% 29.78 in 8.0 mi NNW 11.5 mph - N/A   Clear
9:53 AM 79.0 °F - 69.1 °F 72% 29.79 in 8.0 mi North 18.4 mph - N/A   Clear
10:53 AM 81.0 °F 84.4 °F 70.0 °F 69% 29.81 in 8.0 mi North 18.4 mph 27.6 mph N/A   Clear
11:53 AM 82.0 °F 85.9 °F 70.0 °F 67% 29.80 in 8.0 mi North 19.6 mph 25.3 mph N/A   Partly Cloudy
12:32 PM 82.4 °F 86.3 °F 69.8 °F 66% 29.79 in 8.0 mi North 18.4 mph 26.5 mph N/A   Mostly Cloudy
12:45 PM 82.4 °F 85.4 °F 68.0 °F 62% 29.79 in 8.0 mi North 20.7 mph 27.6 mph N/A   Mostly Cloudy
12:53 PM 82.9 °F 85.4 °F 66.9 °F 58% 29.78 in 8.0 mi North 20.7 mph 27.6 mph N/A   Mostly Cloudy
1:15 PM 84.2 °F 86.6 °F 66.2 °F 55% 29.78 in 9.0 mi North 18.4 mph 32.2 mph N/A   Scattered Clouds
1:32 PM 84.2 °F 85.6 °F 64.4 °F 51% 29.78 in 9.0 mi North 19.6 mph 31.1 mph N/A   Mostly Cloudy
1:53 PM 84.0 °F 85.4 °F 64.0 °F 51% 29.77 in 9.0 mi North 20.7 mph 29.9 mph N/A   Mostly Cloudy
2:53 PM 84.0 °F 85.4 °F 64.0 °F 51% 29.75 in 9.0 mi North 20.7 mph 28.8 mph N/A   Mostly Cloudy
3:53 PM 84.0 °F 84.4 °F 61.0 °F 46% 29.74 in 9.0 mi North 19.6 mph 29.9 mph N/A   Mostly Cloudy
4:53 PM 82.9 °F 83.7 °F 62.1 °F 49% 29.73 in 9.0 mi NNE 17.3 mph 27.6 mph N/A   Mostly Cloudy
5:53 PM 82.0 °F 83.1 °F 63.0 °F 52% 29.73 in 9.0 mi NNE 13.8 mph 24.2 mph N/A   Mostly Cloudy
6:03 PM 80.6 °F 81.8 °F 62.6 °F 54% 29.73 in 9.0 mi North 17.3 mph 24.2 mph N/A   Scattered Clouds
6:16 PM 80.6 °F 81.8 °F 62.6 °F 54% 29.73 in 9.0 mi NNE 15.0 mph 23.0 mph N/A   Mostly Cloudy
6:25 PM 80.6 °F 81.8 °F 62.6 °F 54% 29.73 in 9.0 mi NNE 12.7 mph - N/A   Scattered Clouds
6:53 PM 80.1 °F 81.2 °F 62.1 °F 54% 29.74 in 9.0 mi NNE 10.4 mph - N/A   Clear
7:53 PM 77.0 °F - 64.0 °F 64% 29.75 in 10.0 mi NNE 8.1 mph - N/A   Clear
8:53 PM 75.0 °F - 64.9 °F 71% 29.75 in 10.0 mi North 6.9 mph - N/A   Clear
9:53 PM 73.9 °F - 66.9 °F 79% 29.75 in 10.0 mi NNW 6.9 mph - N/A   Mostly Cloudy
10:53 PM 75.0 °F - 68.0 °F 79% 29.76 in 10.0 mi WNW 4.6 mph - N/A   Clear
11:53 PM 73.0 °F - 68.0 °F 84% 29.77 in 10.0 mi NW 6.9 mph - N/A   Clear